GW0931 Weather Reports


time (UTC)temp
C
wind
direction
speed
KPH
gust
KPH
rain 1hr
cm
rain 24hr
cm
rain mn
cm
humidity
%
barometer
mb
20260503071544 23 70 3.2 4.8 0.00 5.82 0.00 81 1013.9
20260503054621 23 102 3.2 4.8 0.00 5.82 0.00 79 1014.6
20260503053023 23 103 0.0 3.2 0.00 5.82 0.00 80 1014.8
20260503051520 23 97 0.0 3.2 0.00 5.82 0.00 81 1014.8
20260503050022 23 153 0.0 0.0 0.00 5.82 0.00 87 1014.8
20260503044523 23 153 0.0 4.8 0.00 5.82 0.00 89 1014.8
20260503043038 24 162 0.0 4.8 0.00 5.82 0.00 92 1015.0
20260503041538 24 152 0.0 1.6 0.00 5.82 0.00 93 1015.2
20260503040056 24 135 0.0 3.2 0.00 5.82 5.82 93 1015.2
20260503034508 24 86 0.0 1.6 0.00 5.82 5.82 93 1015.4
20260503033039 24 98 0.0 3.2 0.00 5.82 5.82 93 1015.3
20260503031550 24 79 3.2 8.0 0.00 5.82 5.82 93 1015.2
20260503030105 24 98 3.2 8.0 0.00 5.82 5.82 92 1015.1
20260503024525 24 121 0.0 8.0 0.00 5.82 5.82 90 1015.2
20260503023030 24 148 1.6 6.4 0.00 5.82 5.82 91 1015.0
20260503021541 24 165 1.6 4.8 0.00 5.82 5.82 91 1014.8
20260503020049 24 148 0.0 3.2 0.00 5.82 5.82 91 1014.7
20260503014544 24 252 1.6 4.8 0.00 5.82 5.82 91 1014.7
20260503013055 24 269 1.6 8.0 0.00 5.82 5.82 92 1014.5
20260503011515 24 275 3.2 8.0 0.00 5.82 5.82 94 1014.2
20260503010025 24 250 0.0 4.8 0.00 5.82 5.82 95 1014.1
20260503004543 24 262 0.0 1.6 0.00 5.82 5.82 95 1013.9
20260503003103 24 248 0.0 3.2 0.00 5.82 5.82 95 1013.7
20260503001626 24 223 0.0 4.8 0.00 5.82 5.82 95 1013.4
20260502234502 24 252 0.0 1.6 1.19 5.99 5.82 94 1013.1
20260502233014 24 321 0.0 3.2 2.90 5.99 5.82 94 1013.0
20260502231527 23 296 3.2 17.7 4.93 5.99 5.82 94 1012.7
20260502230046 23 305 8.0 14.5 5.54 5.87 5.69 95 1012.6
20260502224556 23 75 0.0 6.4 4.65 4.83 4.65 95 1012.9
20260502223015 24 61 4.8 9.7 2.84 3.02 2.84 94 1013.0
20260502221514 25 132 3.2 11.3 0.81 0.99 0.81 92 1012.9
20260502220037 25 69 4.8 9.7 0.15 0.33 0.15 89 1012.7
20260502214542 26 77 1.6 9.7 0.00 0.18 0.00 88 1012.6
20260502213103 26 40 4.8 14.5 0.00 0.18 0.00 88 1012.4
20260502211513 26 67 4.8 17.7 0.00 0.18 0.00 87 1012.3
20260502210013 27 62 6.4 17.7 0.00 0.18 0.00 86 1012.2
20260502204536 27 49 6.4 12.9 0.00 0.18 0.00 85 1012.1
20260502203050 27 50 4.8 19.3 0.00 0.18 0.00 85 1012.0
20260502201546 27 61 9.7 19.3 0.00 0.18 0.00 84 1012.2
20260502200112 28 65 4.8 16.1 0.00 0.18 0.00 82 1012.3
20260502194608 28 65 1.6 11.3 0.00 0.18 0.00 80 1012.3
20260502193022 30 72 0.0 6.4 0.00 0.18 0.00 76 1012.4
20260502191527 30 340 1.6 11.3 0.00 0.18 0.00 75 1012.4
20260502190040 30 311 0.0 8.0 0.00 0.18 0.00 72 1012.4
20260502184550 30 214 1.6 6.4 0.00 0.18 0.00 72 1012.5
20260502183118 30 308 1.6 11.3 0.00 0.18 0.00 72 1012.5
20260502181602 30 310 3.2 11.3 0.00 0.18 0.00 69 1012.8
20260502163020 29 270 6.4 11.3 0.00 0.18 0.00 64 1013.9
20260502161529 29 291 3.2 12.9 0.00 0.18 0.00 63 1014.0
20260502151540 31 250 0.0 3.2 0.00 0.18 0.00 67 1014.8
20260502123048 27 93 1.6 8.0 0.00 0.18 0.00 78 1014.5
20260502121506 26 70 4.8 8.0 0.00 0.18 0.00 78 1014.2
20260502114526 26 103 3.2 6.4 0.00 0.18 0.00 79 1013.9
20260502113046 26 101 1.6 4.8 0.00 0.18 0.00 78 1013.8
20260502111604 25 106 0.0 6.4 0.00 0.18 0.00 79 1013.6
20260502110004 25 75 1.6 4.8 0.00 0.18 0.00 81 1013.4
20260502104521 25 77 0.0 1.6 0.00 0.18 0.00 82 1013.2
20260502103057 24 63 0.0 3.2 0.00 0.18 0.00 84 1013.2
20260502101549 23 86 0.0 1.6 0.00 0.18 0.00 86 1012.9
20260502091511 23 99 0.0 1.6 0.00 0.18 0.00 90 1012.4